Regional Weather Roundup
Issued by NWS

Home | Current Version | Previous Version | Graphics & Text | Print | Product List | Glossary On
Versions: 1 2 3 4 5 6 7 8 9 10 11 12 13 14 15 16 17 18 19 20 21 22 23 24 25 26 27 28 29 30 31 32 33 34 35 36 37 38 39 40 41 42 43 44 45 46 47 48 49 50
000
ASUS45 KBOU 301910
RWRCO

WEATHER ROUNDUP FOR COLORADO
NATIONAL WEATHER SERVICE DENVER/BOULDER CO
100 PM MDT TUE JUN 30 2015

NOTE: "FAIR" INDICATES FEW OR NO CLOUDS BELOW 12000 FEET WITH NO
SIGNIFICANT WEATHER AND/OR OBSTRUCTIONS TO VISIBILITY.

COZ001>005-013-030-031-302000-
...NORTHWEST COLORADO...

CITY           SKY/WX    TMP DP  RH WIND       PRES   REMARKS
CRAIG          PTSUNNY   90  51  26 N5        30.21F
HAYDEN         MOSUNNY   82  43  24 SW7       30.24F
MEEKER         MOSUNNY   88  35  15 S6        30.23F
MOUNT WERNER   NOT AVBL
STEAMBOAT SPGS MOSUNNY   82  44  25 SW3       30.27F
WALDEN         MOSUNNY   79  39  24 SE5       30.36S
$$

COZ006>008-011-302000-
...WEST CENTRAL VALLEYS...

CITY           SKY/WX    TMP DP  RH WIND       PRES   REMARKS
GRAND JUNCTION MOSUNNY   93  43  17 VRB7      30.08F
MONTROSE       MOSUNNY   93  44  18 W7        30.17F
EAGLE          MOSUNNY   88  39  18 CALM      30.25F
RIFLE          SUNNY     92  43  18 NW7       30.14F
DELTA          MOSUNNY   95  43  16 W3        30.12F
NUCLA          MOSUNNY   90  43  19 N5        30.23F
$$

COZ017>023-064>068-302000-
...SOUTHWEST COLORADO...

CITY           SKY/WX    TMP DP  RH WIND       PRES   REMARKS
DURANGO        SUNNY     84  48  28 VRB6      30.26F
CORTEZ         SUNNY     92  45  19 W6        30.19F
PAGOSA SPRINGS SUNNY     81  42  25 SW5       30.35F
TELLURIDE      MOSUNNY   79  33  18 CALM      30.48S
WOLF CREEK PAS NOT AVBL
$$

COZ009-010-012-014-032>034-037-058>063-302000-
...CENTRAL COLORADO...

CITY           SKY/WX    TMP DP  RH WIND       PRES   REMARKS
ASPEN          MOSUNNY   86  43  22 VRB7      30.33F
BUENA VISTA    SUNNY     81  37  21 E7        30.33F
COPPER MTN     PTSUNNY   68  30  24 W15G29    30.72S
BERTHOUD PASS  FAIR      57  46  67 MISG      30.76F
COTTONWOOD PAS NOT AVBL
GUNNISON       SUNNY     81  46  30 SW10      30.36F
KREMMLING      MOSUNNY   82  27  13 SW5       30.32F
LEADVILLE      SUNNY     75  31  19 N15       30.50F
MONARCH PASS   PTSUNNY   63  43  48 S9G18     30.80F
SALIDA         SUNNY     85  33  15 NE5       30.37F
SUNLIGHT       SUNNY     70  41  35 W3        30.65S
WILKERSON PASS SUNNY     70  39  32 SW3       30.66F
$$

COZ069>075-302000-
...SAN LUIS VALLEY/SANGRE DE CRISTO MOUNTAINS...

CITY           SKY/WX    TMP DP  RH WIND       PRES   REMARKS
ALAMOSA        SUNNY     82  46  28 MISG      30.33F
LA VETA PASS   SUNNY     72  43  35 MISG      30.55F
SAGUACHE       SUNNY     77  46  33 S5        30.36F
$$

COZ035-036-038>040-302000-
...NORTHERN COLORADO FRONT RANGE...

CITY           SKY/WX    TMP DP  RH WIND       PRES   REMARKS
DENVER INTL AP MOSUNNY   90  41  18 VRB6      30.13F
DMNS CITY PARK   N/A     91  42  18 E7        30.12F
AURORA         NOT AVBL
FRONT RANGE AP MOSUNNY   88  45  22 MISG      30.15F
ERIE MUNI ARPT SUNNY     91  36  14 E6        30.10F
BOULDER MUN AP SUNNY     90  45  20 CALM      30.11F
CENTENNIAL     MOSUNNY   86  41  20 SE8       30.17F
BROOMFIELD     NOT AVBL
FORT COLLINS   SUNNY     90  52  27 S8        30.07F
LONGMONT       SUNNY     95  43  16 S7        30.10F
$$

COZ041-046-047-076>085-087-088-302000-
...PIKES PEAK/PALMER DIVIDE AND SOUTHERN FOOTHILLS...

CITY           SKY/WX    TMP DP  RH WIND       PRES   REMARKS
COLO. SPRINGS  MOSUNNY   83  49  30 S7        30.22F
A. F. ACADEMY  NOT AVBL
ELLICOTT       SUNNY    N/A N/A N/A VRB5      30.21F
FALCON         SUNNY     82  45  27 SW3       30.28F
FORT CARSON    NOT AVBL
LIMON          SUNNY     85  52  32 VRB6      30.15F
MONUMENT HILL  SUNNY     79  43  27 N3        30.29S
TRINIDAD       SUNNY     88  47  24 VRB3      30.18F
$$

COZ042>045-048>051-090-091-302000-
...NORTHEAST COLORADO...

CITY           SKY/WX    TMP DP  RH WIND       PRES   REMARKS
GREELEY ARPT   SUNNY     93  43  17 S5        30.07F
AKRON          SUNNY     90  49  24 VRB7      30.07F
BURLINGTON     MOSUNNY   91  47  21 SW10G21   30.07F
WRAY           SUNNY     97  49  20 SW7       30.00F
STERLING       SUNNY     91  52  25 S7        30.01F
HOLYOKE        SUNNY     97  50  20 SW8       29.99F
FORT MORGAN    SUNNY     91  43  19 CALM      30.07F
$$

COZ086-089-092>099-302000-
...SOUTHEAST COLORADO...

CITY           SKY/WX    TMP DP  RH WIND       PRES   REMARKS
PUEBLO         SUNNY     93  51  23 VRB7      30.09F
LA JUNTA       SUNNY     92  48  22 VRB5      30.07F
LAMAR          SUNNY     93  47  20 S5        30.03F
SPRINGFIELD      N/A     91  45  20 SW13G23   30.10F
$$



USA.gov is the U.S. government's official web portal to all federal, state and local government web resources and services.